| time (UTC) | temp F | wind direction | speed MPH | gust MPH | rain 1hr in | rain 24hr in | rain mn in | humidity % | barometer mb |
| 20260505023056 | 62 | 148 | 1.0 | 3.0 | 0.00 | 0.00 | 0.00 | 88 | 1012.6 |
| 20260505022555 | 62 | 148 | 0.0 | 3.0 | 0.00 | 0.00 | 0.00 | 87 | 1012.5 |
| 20260505022054 | 62 | 148 | 0.0 | 3.0 | 0.00 | 0.00 | 0.00 | 87 | 1012.5 |
| 20260505021554 | 62 | 148 | 0.0 | 2.0 | 0.00 | 0.00 | 0.00 | 86 | 1012.5 |
| 20260505021058 | 63 | 148 | 0.0 | 2.0 | 0.00 | 0.00 | 0.00 | 86 | 1012.2 |
| 20260505020554 | 63 | 148 | 0.0 | 2.0 | 0.00 | 0.00 | 0.00 | 85 | 1012.2 |
| 20260505015555 | 64 | 148 | 0.0 | 3.0 | 0.00 | 0.00 | 0.00 | 83 | 1012.2 |
| 20260505015056 | 64 | 148 | 0.0 | 3.0 | 0.00 | 0.00 | 0.00 | 82 | 1012.2 |
| 20260505014555 | 64 | 148 | 1.0 | 4.0 | 0.00 | 0.00 | 0.00 | 82 | 1012.2 |
| 20260505014055 | 65 | 148 | 1.0 | 4.0 | 0.00 | 0.00 | 0.00 | 81 | 1012.0 |
| 20260505013554 | 65 | 148 | 1.0 | 4.0 | 0.00 | 0.00 | 0.00 | 81 | 1012.0 |
| 20260505013103 | 65 | 148 | 1.0 | 4.0 | 0.00 | 0.00 | 0.00 | 80 | 1012.0 |
| 20260505012554 | 66 | 148 | 0.0 | 4.0 | 0.00 | 0.00 | 0.00 | 79 | 1011.8 |
| 20260505012054 | 66 | 148 | 1.0 | 4.0 | 0.00 | 0.00 | 0.00 | 78 | 1011.8 |
| 20260505011554 | 67 | 148 | 0.0 | 2.0 | 0.00 | 0.00 | 0.00 | 77 | 1011.8 |
| 20260505011054 | 68 | 148 | 0.0 | 2.0 | 0.00 | 0.00 | 0.00 | 75 | 1011.9 |
| 20260505010555 | 68 | 148 | 0.0 | 2.0 | 0.00 | 0.00 | 0.00 | 74 | 1011.9 |
| 20260505010109 | 69 | 148 | 0.0 | 4.0 | 0.00 | 0.00 | 0.00 | 71 | 1011.9 |
| 20260505005551 | 69 | 148 | 1.0 | 6.0 | 0.00 | 0.00 | 0.00 | 70 | 1012.1 |
| 20260505005051 | 69 | 148 | 1.0 | 6.0 | 0.00 | 0.00 | 0.00 | 69 | 1012.1 |
| 20260505004551 | 70 | 144 | 1.0 | 5.0 | 0.00 | 0.00 | 0.00 | 68 | 1012.1 |
| 20260505004050 | 70 | 147 | 2.0 | 5.0 | 0.00 | 0.00 | 0.00 | 68 | 1012.2 |
| 20260505003551 | 70 | 150 | 0.0 | 5.0 | 0.00 | 0.00 | 0.00 | 67 | 1012.2 |
| 20260505003055 | 71 | 145 | 1.0 | 8.0 | 0.00 | 0.00 | 0.00 | 67 | 1012.2 |
| 20260505002550 | 71 | 138 | 3.0 | 8.0 | 0.00 | 0.00 | 0.00 | 65 | 1012.3 |
| 20260505002050 | 72 | 144 | 2.0 | 6.0 | 0.00 | 0.00 | 0.00 | 65 | 1012.3 |
| 20260505001550 | 72 | 151 | 1.0 | 8.0 | 0.00 | 0.00 | 0.00 | 64 | 1012.3 |
| 20260505001049 | 72 | 150 | 3.0 | 8.0 | 0.00 | 0.00 | 0.00 | 64 | 1012.4 |
| 20260505000554 | 73 | 151 | 2.0 | 7.0 | 0.00 | 0.00 | 0.00 | 62 | 1012.4 |
| 20260505000049 | 73 | 158 | 2.0 | 6.0 | 0.00 | 0.00 | 0.00 | 61 | 1012.4 |
| 20260504235549 | 74 | 165 | 2.0 | 7.0 | 0.00 | 0.00 | 0.00 | 60 | 1012.3 |
| 20260504235049 | 74 | 185 | 3.0 | 7.0 | 0.00 | 0.00 | 0.00 | 59 | 1012.3 |
| 20260504234548 | 74 | 171 | 2.0 | 6.0 | 0.00 | 0.00 | 0.00 | 59 | 1012.3 |
| 20260504234048 | 74 | 196 | 2.0 | 6.0 | 0.00 | 0.00 | 0.00 | 58 | 1012.5 |
| 20260504233548 | 75 | 153 | 2.0 | 7.0 | 0.00 | 0.00 | 0.00 | 59 | 1012.5 |
| 20260504233104 | 74 | 218 | 5.0 | 7.0 | 0.00 | 0.00 | 0.00 | 58 | 1012.5 |
| 20260504232548 | 74 | 180 | 4.0 | 9.0 | 0.00 | 0.00 | 0.00 | 57 | 1012.7 |
| 20260504232047 | 74 | 165 | 4.0 | 9.0 | 0.00 | 0.00 | 0.00 | 56 | 1012.7 |
| 20260504231549 | 75 | 202 | 5.0 | 10.0 | 0.00 | 0.00 | 0.00 | 56 | 1012.7 |
| 20260504231048 | 75 | 182 | 3.0 | 10.0 | 0.00 | 0.00 | 0.00 | 57 | 1012.8 |
| 20260504230548 | 75 | 163 | 3.0 | 10.0 | 0.00 | 0.00 | 0.00 | 56 | 1012.8 |
| 20260504230054 | 75 | 187 | 5.0 | 8.0 | 0.00 | 0.00 | 0.00 | 56 | 1012.8 |
| 20260504225545 | 76 | 168 | 4.0 | 8.0 | 0.00 | 0.00 | 0.00 | 55 | 1012.8 |
| 20260504225045 | 76 | 186 | 4.0 | 10.0 | 0.00 | 0.00 | 0.00 | 54 | 1012.8 |
| 20260504224550 | 76 | 202 | 2.0 | 10.0 | 0.00 | 0.00 | 0.00 | 56 | 1012.8 |
| 20260504224045 | 76 | 188 | 4.0 | 10.0 | 0.00 | 0.00 | 0.00 | 52 | 1013.1 |
| 20260504223545 | 77 | 185 | 3.0 | 10.0 | 0.00 | 0.00 | 0.00 | 51 | 1013.1 |
| 20260504223045 | 77 | 198 | 4.0 | 7.0 | 0.00 | 0.00 | 0.00 | 52 | 1013.1 |
| 20260504222545 | 77 | 240 | 2.0 | 7.0 | 0.00 | 0.00 | 0.00 | 53 | 1013.1 |
| 20260504222047 | 77 | 232 | 3.0 | 11.0 | 0.00 | 0.00 | 0.00 | 51 | 1013.1 |
| 20260504221544 | 77 | 198 | 5.0 | 11.0 | 0.00 | 0.00 | 0.00 | 51 | 1013.1 |
| 20260504221044 | 78 | 246 | 3.0 | 9.0 | 0.00 | 0.00 | 0.00 | 50 | 1013.3 |
| 20260504220545 | 78 | 185 | 4.0 | 9.0 | 0.00 | 0.00 | 0.00 | 50 | 1013.3 |
| 20260504220043 | 77 | 157 | 4.0 | 10.0 | 0.00 | 0.00 | 0.00 | 50 | 1013.3 |
| 20260504215547 | 77 | 221 | 3.0 | 10.0 | 0.00 | 0.00 | 0.00 | 50 | 1013.3 |
| 20260504215042 | 77 | 185 | 3.0 | 8.0 | 0.00 | 0.00 | 0.00 | 49 | 1013.3 |
| 20260504214545 | 78 | 137 | 3.0 | 11.0 | 0.00 | 0.00 | 0.00 | 49 | 1013.3 |
| 20260504214045 | 78 | 184 | 2.0 | 11.0 | 0.00 | 0.00 | 0.00 | 52 | 1013.4 |
| 20260504213545 | 77 | 228 | 3.0 | 7.0 | 0.00 | 0.00 | 0.00 | 50 | 1013.4 |
| 20260504213042 | 77 | 194 | 1.0 | 8.0 | 0.00 | 0.00 | 0.00 | 47 | 1013.4 |
| 20260504212542 | 77 | 194 | 2.0 | 8.0 | 0.00 | 0.00 | 0.00 | 49 | 1013.5 |
| 20260504212045 | 77 | 158 | 4.0 | 11.0 | 0.00 | 0.00 | 0.00 | 51 | 1013.5 |
| 20260504211541 | 77 | 132 | 3.0 | 11.0 | 0.00 | 0.00 | 0.00 | 51 | 1013.5 |
| 20260504211041 | 77 | 211 | 2.0 | 9.0 | 0.00 | 0.00 | 0.00 | 51 | 1013.7 |
| 20260504210545 | 77 | 129 | 5.0 | 9.0 | 0.00 | 0.00 | 0.00 | 49 | 1013.7 |
| 20260504210044 | 77 | 189 | 4.0 | 10.0 | 0.00 | 0.00 | 0.00 | 47 | 1013.7 |
| 20260504205540 | 77 | 146 | 4.0 | 10.0 | 0.00 | 0.00 | 0.00 | 48 | 1013.9 |
| 20260504205042 | 77 | 193 | 4.0 | 10.0 | 0.00 | 0.00 | 0.00 | 49 | 1013.9 |
| 20260504204547 | 78 | 146 | 4.0 | 8.0 | 0.00 | 0.00 | 0.00 | 46 | 1013.9 |
| 20260504204039 | 78 | 175 | 4.0 | 13.0 | 0.00 | 0.00 | 0.00 | 47 | 1013.9 |
| 20260504203540 | 78 | 209 | 3.0 | 9.0 | 0.00 | 0.00 | 0.00 | 47 | 1013.9 |
| 20260504203053 | 78 | 202 | 5.0 | 9.0 | 0.00 | 0.00 | 0.00 | 49 | 1013.9 |
| 20260504202539 | 78 | 205 | 5.0 | 9.0 | 0.00 | 0.00 | 0.00 | 47 | 1014.3 |
| 20260504202038 | 78 | 196 | 3.0 | 13.0 | 0.00 | 0.00 | 0.00 | 47 | 1014.3 |
| 20260504201537 | 78 | 194 | 5.0 | 13.0 | 0.00 | 0.00 | 0.00 | 47 | 1014.3 |
| 20260504201037 | 78 | 172 | 2.0 | 12.0 | 0.00 | 0.00 | 0.00 | 44 | 1014.5 |
| 20260504200537 | 78 | 146 | 5.0 | 12.0 | 0.00 | 0.00 | 0.00 | 47 | 1014.5 |
| 20260504200036 | 78 | 179 | 3.0 | 8.0 | 0.00 | 0.00 | 0.00 | 48 | 1014.5 |
| 20260504195535 | 78 | 215 | 3.0 | 8.0 | 0.00 | 0.00 | 0.00 | 44 | 1014.9 |
| 20260504195035 | 78 | 201 | 4.0 | 8.0 | 0.00 | 0.00 | 0.00 | 44 | 1014.9 |
| 20260504194536 | 78 | 138 | 5.0 | 12.0 | 0.00 | 0.00 | 0.00 | 46 | 1014.9 |
| 20260504194036 | 78 | 126 | 5.0 | 13.0 | 0.00 | 0.00 | 0.00 | 47 | 1015.1 |
| 20260504193535 | 78 | 161 | 6.0 | 13.0 | 0.00 | 0.00 | 0.00 | 48 | 1015.1 |
| 20260504193034 | 78 | 212 | 3.0 | 10.0 | 0.00 | 0.00 | 0.00 | 44 | 1015.1 |
| 20260504192532 | 78 | 204 | 3.0 | 14.0 | 0.00 | 0.00 | 0.00 | 46 | 1015.2 |
| 20260504192032 | 78 | 253 | 5.0 | 14.0 | 0.00 | 0.00 | 0.00 | 46 | 1015.2 |
| 20260504191532 | 78 | 198 | 2.0 | 10.0 | 0.00 | 0.00 | 0.00 | 50 | 1015.2 |
| 20260504191032 | 78 | 198 | 5.0 | 10.0 | 0.00 | 0.00 | 0.00 | 51 | 1015.3 |
| 20260504190531 | 77 | 184 | 3.0 | 10.0 | 0.00 | 0.00 | 0.00 | 55 | 1015.3 |
| 20260504190033 | 78 | 157 | 3.0 | 11.0 | 0.00 | 0.00 | 0.00 | 50 | 1015.3 |
| 20260504185532 | 77 | 169 | 4.0 | 11.0 | 0.00 | 0.00 | 0.00 | 49 | 1015.4 |
| 20260504185029 | 78 | 159 | 3.0 | 8.0 | 0.00 | 0.00 | 0.00 | 49 | 1015.4 |
| 20260504184533 | 78 | 209 | 0.0 | 7.0 | 0.00 | 0.00 | 0.00 | 51 | 1015.4 |
| 20260504184029 | 78 | 182 | 4.0 | 10.0 | 0.00 | 0.00 | 0.00 | 46 | 1015.4 |
| 20260504183529 | 78 | 227 | 5.0 | 10.0 | 0.00 | 0.00 | 0.00 | 48 | 1015.4 |
| 20260504183033 | 78 | 161 | 2.0 | 10.0 | 0.00 | 0.00 | 0.00 | 55 | 1015.4 |
| 20260504182531 | 78 | 196 | 3.0 | 10.0 | 0.00 | 0.00 | 0.00 | 51 | 1015.9 |
| 20260504182031 | 78 | 202 | 0.0 | 10.0 | 0.00 | 0.00 | 0.00 | 48 | 1015.9 |
| 20260504181527 | 78 | 202 | 4.0 | 10.0 | 0.00 | 0.00 | 0.00 | 48 | 1015.9 |
| 20260504181026 | 78 | 213 | 2.0 | 9.0 | 0.00 | 0.00 | 0.00 | 49 | 1016.0 |
| 20260504180529 | 78 | 250 | 4.0 | 10.0 | 0.00 | 0.00 | 0.00 | 48 | 1016.0 |
| 20260504180024 | 77 | 236 | 3.0 | 12.0 | 0.00 | 0.00 | 0.00 | 49 | 1016.0 |
| 20260504175523 | 77 | 198 | 5.0 | 12.0 | 0.00 | 0.00 | 0.00 | 51 | 1016.0 |
| 20260504175023 | 77 | 151 | 5.0 | 11.0 | 0.00 | 0.00 | 0.00 | 49 | 1016.0 |
| 20260504174523 | 77 | 167 | 6.0 | 11.0 | 0.00 | 0.00 | 0.00 | 51 | 1016.0 |
| 20260504174023 | 77 | 248 | 5.0 | 8.0 | 0.00 | 0.00 | 0.00 | 48 | 1016.2 |
| 20260504173522 | 77 | 177 | 3.0 | 12.0 | 0.00 | 0.00 | 0.00 | 49 | 1016.2 |
| 20260504173021 | 77 | 188 | 6.0 | 12.0 | 0.00 | 0.00 | 0.00 | 46 | 1016.2 |
| 20260504172521 | 77 | 207 | 3.0 | 10.0 | 0.00 | 0.00 | 0.00 | 50 | 1016.0 |
| 20260504172021 | 77 | 212 | 4.0 | 10.0 | 0.00 | 0.00 | 0.00 | 47 | 1016.0 |
| 20260504171520 | 77 | 244 | 5.0 | 11.0 | 0.00 | 0.00 | 0.00 | 49 | 1016.0 |
| 20260504171023 | 77 | 192 | 5.0 | 11.0 | 0.00 | 0.00 | 0.00 | 48 | 1016.2 |
| 20260504170518 | 76 | 203 | 2.0 | 11.0 | 0.00 | 0.00 | 0.00 | 51 | 1016.2 |
| 20260504151010 | 73 | 113 | 3.0 | 12.0 | 0.00 | 0.00 | 0.00 | 55 | 1016.6 |
| 20260504150504 | 73 | 123 | 6.0 | 13.0 | 0.00 | 0.00 | 0.00 | 52 | 1016.6 |
| 20260504141056 | 72 | 136 | 0.0 | 0.0 | 0.00 | 0.00 | 0.00 | 68 | 1016.9 |
| 20260504140555 | 71 | 133 | 0.0 | 0.0 | 0.00 | 0.00 | 0.00 | 74 | 1016.9 |
| 20260504130538 | 61 | 129 | 0.0 | 0.0 | 0.00 | 0.00 | 0.00 | 100 | 1016.9 |
| 20260504110523 | 52 | 129 | 0.0 | 0.0 | 0.00 | 0.00 | 0.00 | 98 | 1016.0 |
| 20260504100521 | 53 | 129 | 0.0 | 0.0 | 0.00 | 0.00 | 0.00 | 99 | 1016.0 |
| 20260504081514 | 52 | 129 | 0.0 | 0.0 | 0.00 | 0.00 | 0.00 | 97 | 1016.4 |
| 20260504081014 | 52 | 129 | 0.0 | 0.0 | 0.00 | 0.00 | 0.00 | 97 | 1016.5 |
| 20260504080514 | 52 | 129 | 0.0 | 0.0 | 0.00 | 0.00 | 0.00 | 97 | 1016.5 |
| 20260504060126 | 55 | 129 | 0.0 | 0.0 | 0.00 | 0.00 | 0.00 | 94 | 1017.5 |
| 20260504050555 | 56 | 129 | 0.0 | 0.0 | 0.00 | 0.00 | 0.00 | 91 | 1017.8 |
| 20260504050113 | 56 | 129 | 0.0 | 0.0 | 0.00 | 0.00 | 0.00 | 91 | 1017.8 |
| 20260504045553 | 56 | 129 | 0.0 | 0.0 | 0.00 | 0.00 | 0.00 | 91 | 1018.0 |
| 20260504045053 | 57 | 129 | 0.0 | 1.0 | 0.00 | 0.00 | 0.00 | 90 | 1018.0 |
| 20260504044554 | 57 | 129 | 0.0 | 1.0 | 0.00 | 0.00 | 0.00 | 89 | 1018.0 |
| 20260504044056 | 57 | 129 | 0.0 | 0.0 | 0.00 | 0.00 | 0.00 | 89 | 1018.0 |
| 20260504043554 | 57 | 129 | 0.0 | 0.0 | 0.00 | 0.00 | 0.00 | 89 | 1018.0 |
| 20260504043107 | 57 | 129 | 0.0 | 0.0 | 0.00 | 0.00 | 0.00 | 90 | 1018.0 |
| 20260504042554 | 57 | 129 | 0.0 | 0.0 | 0.00 | 0.00 | 0.00 | 90 | 1018.0 |
| 20260504042054 | 57 | 129 | 0.0 | 0.0 | 0.00 | 0.00 | 0.00 | 89 | 1018.0 |
| 20260504041553 | 57 | 129 | 0.0 | 0.0 | 0.00 | 0.00 | 0.00 | 89 | 1018.0 |
| 20260504041053 | 57 | 129 | 0.0 | 0.0 | 0.00 | 0.00 | 0.00 | 88 | 1018.0 |
| 20260504040553 | 57 | 129 | 0.0 | 0.0 | 0.00 | 0.00 | 0.00 | 88 | 1018.0 |
| 20260504040058 | 57 | 129 | 0.0 | 0.0 | 0.00 | 0.00 | 0.00 | 88 | 1018.0 |
| 20260504035552 | 58 | 129 | 0.0 | 0.0 | 0.00 | 0.00 | 0.00 | 87 | 1018.1 |
| 20260504035053 | 58 | 129 | 0.0 | 0.0 | 0.00 | 0.00 | 0.00 | 86 | 1018.1 |
| 20260504034554 | 58 | 129 | 0.0 | 0.0 | 0.00 | 0.00 | 0.00 | 86 | 1018.1 |
| 20260504034052 | 59 | 129 | 0.0 | 0.0 | 0.00 | 0.00 | 0.00 | 85 | 1018.0 |
| 20260504033552 | 59 | 129 | 0.0 | 0.0 | 0.00 | 0.00 | 0.00 | 84 | 1018.0 |
| 20260504033057 | 60 | 129 | 0.0 | 0.0 | 0.00 | 0.00 | 0.00 | 83 | 1018.0 |
| 20260504032552 | 60 | 129 | 0.0 | 0.0 | 0.00 | 0.00 | 0.00 | 81 | 1018.1 |
| 20260504032054 | 60 | 129 | 0.0 | 1.0 | 0.00 | 0.00 | 0.00 | 80 | 1018.1 |
| 20260504031558 | 61 | 129 | 0.0 | 1.0 | 0.00 | 0.00 | 0.00 | 81 | 1018.1 |
| 20260504031051 | 61 | 129 | 0.0 | 1.0 | 0.00 | 0.00 | 0.00 | 81 | 1018.1 |
| 20260504030551 | 61 | 129 | 0.0 | 1.0 | 0.00 | 0.00 | 0.00 | 79 | 1018.1 |
| 20260504030052 | 62 | 129 | 0.0 | 1.0 | 0.00 | 0.00 | 0.00 | 79 | 1018.1 |
| 20260504025551 | 62 | 129 | 0.0 | 3.0 | 0.00 | 0.00 | 0.00 | 78 | 1018.1 |
| 20260504025051 | 62 | 129 | 0.0 | 3.0 | 0.00 | 0.00 | 0.00 | 78 | 1018.1 |
| 20260504024550 | 62 | 129 | 0.0 | 2.0 | 0.00 | 0.00 | 0.00 | 79 | 1018.1 |
| 20260504024053 | 62 | 129 | 0.0 | 3.0 | 0.00 | 0.00 | 0.00 | 79 | 1018.0 |
| 20260504023551 | 62 | 129 | 1.0 | 3.0 | 0.00 | 0.00 | 0.00 | 78 | 1018.0 |